Location: Makakahi
(40.6833°S, 175.6000°E)
Time: 00:03:47
(UTC+00:00)

FENGYUN 1C DEB - Pass Details

Date: 06 December 2024
Orbit: 812 x 877 km, 98.8° (Epoch: 19 January)

Event Time Altitude Azimuth Distance (km) Brightness Sun altitude
Rises 10:28:46 0° 183° (S) 3,377 ? -22.6°
Reaches altitude 10° 10:31:48 10° 200° (SSW) 2,442 ? -22.8°
Maximum altitude 10:35:21 18° 242° (WSW) 1,926 ? -23.1°
Drops below altitude 10° 10:38:55 10° 283° (WNW) 2,443 ? -23.4°
Sets 10:41:58 0° 301° (WNW) 3,379 ? -23.6°
